Wind_Speed
40 39 38 37 36 36 37 38 38 38 36 36 36 36 36 35 34 33 33 32 32 31 31 31 31 30 30 30 30 30 30 29 29 29 28 27 27 26 25 25 25 26 25 24 25 24 25 25 25 24 23 23 22 21 21 21 21 22 22 22 23 22 20 17 14 18 27 29 26 26 24 21 21 22 22 22 22 22 22 24 24 25 27 28 29
40 39 38 38 38 37 37 37 37 37 36 36 36 36 35 34 34 32 32 33 32 32 32 32 32 31 31 30 30 30 30 30 29 29 29 29 28 27 27 27 27 27 27 27 27 26 27 27 27 26 25 25 25 24 23 23 22 24 24 24 24 24 22 21 19 17 24 30 29 27 27 25 25 26 25 25 25 24 25 25 26 27 28 29 31
41 40 39 38 38 38 36 36 37 37 37 37 37 36 35 34 33 32 32 33 32 33 33 33 33 32 32 31 31 31 31 30 30 30 30 30 30 29 29 28 29 29 29 29 29 28 28 29 29 29 27 27 27 26 26 25 25 25 26 26 26 26 24 23 22 20 23 29 30 28 28 27 27 27 26 25 25 25 26 27 27 29 30 31 32
40 39 38 38 38 37 36 36 37 37 37 38 37 37 35 34 33 33 33 33 33 33 33 33 33 33 33 33 32 32 32 32 31 31 31 31 31 30 30 29 30 30 30 30 30 29 29 30 31 30 29 28 28 28 28 28 28 27 28 28 27 28 26 25 26 25 24 27 30 29 27 27 28 27 26 25 25 26 27 28 29 30 32 33 34
38 39 38 38 37 36 37 36 36 37 38 38 37 37 35 34 34 33 33 33 33 33 33 33 33 33 34 34 34 34 33 33 32 32 32 32 31 31 31 31 31 31 31 31 30 30 30 31 33 31 29 28 29 30 30 30 30 30 30 30 29 29 28 27 28 28 26 28 32 32 29 29 30 30 29 28 27 27 28 30 31 31 33 34 35
38 38 38 37 37 37 37 37 37 37 38 37 37 36 36 35 34 34 34 34 33 33 33 33 33 34 35 35 35 35 34 34 33 33 33 32 32 32 32 32 32 32 32 32 31 31 31 32 33 31 29 29 30 31 32 32 32 32 32 31 30 29 29 29 29 28 29 30 32 32 32 31 31 33 33 30 28 29 30 32 33 34 34 36 38
37 37 38 38 37 37 38 38 38 38 38 38 37 36 36 36 35 35 35 34 34 34 34 34 34 35 36 36 35 35 34 34 34 33 33 33 33 34 33 33 33 33 33 33 32 32 33 33 33 32 31 31 32 32 32 32 32 33 33 32 30 29 29 30 29 28 29 30 30 31 31 30 29 31 32 29 27 29 30 31 34 35 35 36 38
37 37 37 37 37 38 39 39 39 39 39 38 38 37 37 36 36 36 35 35 35 36 35 35 35 35 36 36 35 34 34 34 34 34 34 35 35 35 34 34 33 33 32 33 33 33 34 34 34 34 33 33 33 33 33 32 32 32 33 32 30 29 29 29 28 28 28 28 29 30 29 27 26 27 28 26 25 29 31 29 31 35 36 35 36
37 37 36 37 38 39 39 38 38 38 38 37 37 37 37 37 36 36 35 35 36 35 35 35 34 34 35 35 34 34 34 35 36 36 36 36 35 35 35 34 33 33 32 31 32 33 34 35 35 35 35 34 34 34 34 34 33 33 34 33 30 28 28 28 27 26 26 25 26 28 27 26 25 25 26 26 26 30 31 27 29 34 35 35 38
37 36 36 38 39 38 37 37 37 36 36 36 37 37 37 37 36 36 35 36 35 35 34 34 34 35 35 35 34 33 34 36 37 38 37 37 35 34 34 34 33 32 31 31 31 33 34 35 35 35 35 35 35 35 36 35 35 35 36 34 32 29 27 26 27 26 25 24 25 26 26 26 27 26 28 30 31 31 30 28 29 32 30 30 35
36 36 37 38 37 37 36 36 36 36 37 37 37 37 37 36 36 36 36 36 35 35 34 34 35 36 35 35 35 34 35 37 38 38 38 37 36 34 33 33 32 32 31 31 33 34 33 34 35 34 34 35 36 36 36 36 36 37 37 37 35 33 29 27 27 26 25 25 26 26 25 27 30 30 30 32 32 31 31 29 28 28 26 23 25
35 36 37 36 36 36 36 36 36 36 37 37 37 37 36 36 35 36 36 36 36 36 36 36 37 37 36 36 35 35 37 38 39 38 38 38 37 36 35 33 32 32 32 33 34 34 34 34 34 34 34 35 35 36 36 36 37 36 37 38 37 36 34 32 31 29 28 27 28 28 28 30 34 34 32 32 33 32 30 30 29 28 28 26 25
35 35 35 35 35 36 36 35 36 36 37 38 38 37 36 36 36 36 36 37 37 37 37 37 38 37 37 37 37 37 38 39 39 39 39 38 37 36 35 35 34 33 33 33 34 34 34 34 34 35 36 35 35 35 35 36 36 35 36 37 37 37 36 35 35 35 34 33 32 33 34 34 36 38 37 35 33 30 28 31 31 29 30 32 34
33 33 33 34 34 35 35 36 36 37 38 38 37 37 37 37 37 37 37 36 36 37 38 38 38 38 38 38 38 38 39 39 39 39 39 38 36 35 36 36 35 35 34 34 35 35 35 34 34 36 36 34 34 34 34 35 34 34 34 35 37 37 34 34 35 36 38 39 40 42 43 41 41 44 44 39 35 33 33 34 33 31 33 37 39
32 33 33 34 35 35 36 36 37 37 37 37 37 37 37 37 38 37 36 36 37 38 38 37 38 38 39 39 38 39 41 41 40 40 39 37 36 35 35 36 36 36 36 36 36 36 36 35 35 37 36 34 34 34 34 34 33 32 31 32 36 34 30 31 33 34 38 41 43 46 47 46 46 48 48 43 40 38 37 37 37 33 34 37 37
32 33 33 34 35 36 36 36 36 37 37 36 35 36 36 37 38 37 36 36 37 37 37 37 38 39 39 38 38 40 42 41 40 40 40 37 35 34 35 36 36 36 37 37 37 37 37 36 36 37 36 35 36 35 35 34 32 30 29 31 34 31 27 29 32 34 38 41 43 45 47 46 45 46 48 46 44 38 32 36 39 30 27 31 32
32 32 33 34 35 36 37 37 37 37 36 35 35 36 37 38 38 37 36 36 36 37 37 37 38 38 38 38 39 40 41 40 39 40 39 36 35 35 36 36 36 37 38 38 37 37 37 37 36 36 36 36 37 36 35 34 33 31 29 30 33 30 24 23 28 34 40 45 45 44 46 46 45 47 48 47 48 41 30 33 40 31 23 24 25
31 32 33 35 36 37 38 38 38 36 35 35 36 38 38 38 38 38 37 37 38 39 38 37 37 37 38 39 39 40 40 39 38 38 37 36 35 36 36 37 36 37 37 38 37 37 37 37 36 36 37 38 38 37 36 35 34 33 32 30 31 29 21 19 27 38 44 47 46 44 46 47 46 48 47 46 48 43 33 35 42 36 26 25 26
32 34 36 37 38 38 39 39 38 36 36 37 38 38 38 38 37 36 36 37 38 37 36 35 35 36 38 39 39 39 40 38 37 37 37 36 36 36 36 36 35 36 37 37 36 36 36 36 36 37 38 39 39 38 38 36 35 35 33 29 28 28 20 18 27 40 46 46 45 43 45 45 42 43 44 43 43 42 38 39 43 39 32 30 32
33 35 36 36 37 37 37 38 38 37 37 38 39 38 38 37 35 34 35 36 36 35 34 34 34 35 36 37 37 39 39 38 37 37 36 36 36 36 36 36 35 35 35 35 35 33 33 34 35 36 38 38 39 39 38 38 37 35 31 26 26 26 19 17 26 36 40 41 41 40 39 37 35 36 38 39 39 37 36 36 38 40 37 35 36
32 33 33 33 33 34 35 36 37 38 39 39 37 36 36 35 34 33 34 34 33 32 32 32 33 34 34 34 35 37 38 37 36 36 36 36 35 36 37 37 36 35 34 35 34 32 31 32 33 35 36 36 36 35 35 35 36 35 32 29 29 26 17 16 26 34 35 35 35 37 38 35 35 37 37 38 38 36 34 34 35 38 39 38 38
29 32 32 31 31 32 33 35 36 37 37 36 34 34 34 34 33 33 33 32 31 31 32 31 31 31 31 31 33 35 35 35 35 35 35 36 35 36 37 38 37 35 34 33 32 31 31 32 34 34 33 32 31 30 30 30 30 31 31 30 32 28 17 16 27 35 34 32 32 34 37 35 34 36 34 34 36 34 32 33 33 34 36 39 39
25 27 30 32 32 32 32 33 35 35 35 35 34 34 34 33 32 32 31 30 30 30 30 29 28 28 29 30 31 33 34 34 34 34 35 35 35 35 36 36 36 36 35 33 32 32 32 32 31 30 29 28 27 25 25 24 23 24 23 20 22 23 17 15 22 29 30 29 29 30 32 31 30 31 30 30 31 30 28 29 30 31 32 34 37
22 25 28 31 33 34 34 34 35 35 35 35 34 34 33 31 31 31 31 30 28 28 28 27 27 26 27 28 30 31 32 32 33 33 34 34 34 34 34 34 34 35 36 35 34 32 30 27 26 25 24 22 21 18 17 16 14 14 13 10 10 11 10 12 14 19 22 24 25 26 28 27 27 28 29 30 31 30 29 30 30 30 31 31 33
15 20 25 28 31 33 33 34 35 35 35 34 33 34 33 31 30 30 30 29 28 27 26 26 26 26 26 27 28 30 31 31 31 31 32 32 32 32 32 32 32 33 35 36 33 30 27 25 23 21 18 16 14 12 12 11 10 9 9 8 7 5 7 12 12 15 18 20 22 25 26 26 26 28 29 30 32 31 29 29 31 31 30 30 31
13 11 13 17 22 26 29 31 32 33 33 32 32 32 32 31 30 29 29 29 28 27 26 25 25 24 24 25 26 28 28 29 29 30 29 30 30 30 30 30 30 31 34 35 33 29 26 23 20 18 15 13 12 12 11 11 10 9 7 6 5 3 6 10 12 14 17 19 20 22 24 25 26 29 30 30 30 28 26 26 29 31 30 28 30
12 10 8 7 10 16 22 26 28 30 31 31 30 29 29 29 29 28 28 27 26 25 25 24 23 23 23 24 26 27 27 27 27 27 27 28 28 28 29 29 29 31 33 34 34 33 29 24 20 17 15 13 13 13 12 10 8 6 4 3 4 4 7 9 11 12 14 16 17 19 22 24 26 28 28 27 26 25 24 24 26 29 30 29 30
10 8 7 5 5 7 12 18 23 26 28 29 28 27 27 27 27 28 29 29 28 26 26 25 25 25 25 25 25 24 23 24 26 27 27 27 27 27 27 27 28 30 31 31 32 32 29 25 22 20 17 15 13 11 8 6 3 2 3 4 5 7 8 10 11 12 13 15 17 19 21 22 21 21 22 24 26 26 24 23 25 28 29 28 27
10 8 6 5 3 2 6 10 16 21 23 25 25 24 24 25 25 26 27 28 29 28 27 27 28 28 27 26 24 22 22 24 26 27 27 26 25 25 25 25 25 26 27 28 27 24 20 18 17 16 13 12 10 7 5 4 5 6 6 6 6 6 6 6 6 7 9 11 12 13 14 15 16 18 19 22 27 27 25 24 25 27 27 26 25
11 9 7 5 4 1 3 6 11 15 19 21 22 20 18 19 20 21 21 23 26 27 27 27 28 28 27 26 25 24 24 25 25 24 23 23 22 22 22 21 21 21 22 21 19 16 13 12 11 11 11 11 10 9 9 9 9 8 7 7 6 6 5 4 3 1 1 2 4 7 9 12 14 16 16 19 24 26 25 24 24 25 26 26 26
11 10 9 8 5 2 3 6 9 13 16 19 20 19 15 13 13 15 17 19 21 23 24 24 24 24 24 24 24 24 23 23 22 20 19 19 19 20 20 20 19 19 18 16 15 14 14 15 15 14 14 13 12 12 12 11 10 9 8 8 8 8 8 7 6 5 4 3 4 6 8 10 12 13 14 16 20 22 23 24 25 24 25 25 25
10 9 9 9 8 4 2 6 9 12 15 17 19 19 16 13 10 10 12 15 17 19 21 22 21 21 21 21 21 21 21 21 20 18 17 16 18 19 19 19 17 15 14 14 16 17 18 18 18 16 15 15 15 14 13 11 10 10 10 10 11 11 10 10 9 9 8 7 7 7 8 10 12 12 12 13 16 18 20 22 23 23 23 24 24
9 7 7 8 7 5 1 4 8 11 14 16 18 18 17 15 14 12 10 11 13 15 18 19 19 19 19 19 19 19 18 17 17 16 15 15 16 17 16 14 13 14 15 16 19 20 19 18 17 17 17 16 15 14 12 11 11 11 12 12 12 12 11 10 10 10 9 10 10 10 11 12 14 14 13 11 12 14 16 18 20 21 21 21 22
8 6 6 6 6 4 2 2 6 9 12 14 17 17 16 17 18 17 14 12 11 12 13 14 16 17 18 18 18 17 16 15 14 14 14 14 15 16 16 16 17 16 15 16 18 19 19 18 18 18 17 16 15 13 12 12 12 12 13 13 12 11 10 9 9 10 10 11 12 13 14 16 16 16 15 13 12 12 13 15 17 20 21 21 21
7 6 5 5 5 3 2 2 5 8 10 13 14 15 15 17 18 18 16 15 14 13 11 11 13 15 15 15 15 14 14 14 13 13 15 17 18 18 19 20 19 16 15 15 17 19 20 20 20 19 18 16 14 13 12 13 13 13 13 12 11 9 8 8 9 9 10 11 12 13 14 16 17 17 16 16 15 15 15 15 16 17 18 18 18
7 6 6 6 5 4 2 2 4 7 9 12 13 14 15 16 17 17 17 16 16 15 13 12 12 12 13 14 14 14 15 16 16 17 18 19 20 20 20 21 20 18 17 18 19 20 21 21 20 19 17 15 13 12 12 12 13 13 12 10 8 8 8 8 9 9 9 9 10 11 13 15 17 17 17 17 16 15 14 14 15 15 16 16 17
6 5 5 6 6 4 2 2 4 6 9 11 13 14 15 16 17 17 17 17 17 17 17 17 18 18 17 17 17 18 20 21 21 22 22 22 20 18 18 19 20 21 22 22 22 22 21 20 19 17 15 13 13 12 12 12 12 12 10 8 7 7 7 8 8 8 8 9 10 11 12 14 15 16 17 18 17 16 15 15 14 13 14 16 16
6 5 5 5 6 5 3 3 4 7 9 11 13 15 15 16 16 17 17 18 20 21 21 21 23 25 25 24 25 26 26 26 26 24 22 20 17 15 16 19 23 25 25 23 22 21 21 19 17 15 13 12 12 12 11 11 11 10 8 6 6 6 7 7 7 7 8 10 11 12 12 13 14 15 16 16 16 16 15 14 13 11 11 13 14
6 6 6 5 5 5 4 4 6 8 10 12 14 15 16 16 17 17 18 19 20 21 22 22 24 25 26 28 28 27 27 26 24 23 20 18 17 19 22 25 26 26 24 22 20 20 20 18 15 13 12 12 11 11 11 11 10 8 6 5 6 7 8 7 7 9 10 11 12 13 13 13 13 13 14 14 13 13 13 12 12 12 11 12 13
8 6 6 5 5 5 4 5 7 9 11 13 14 16 17 18 19 20 20 21 20 20 20 21 21 23 25 28 26 24 22 22 22 22 23 23 24 25 27 28 27 25 22 21 20 19 18 17 14 13 12 11 10 10 10 9 9 7 5 5 6 7 8 8 8 10 11 11 12 13 13 13 12 11 11 11 10 10 10 10 10 10 9 9 9
9 7 7 6 6 5 5 6 8 10 11 13 15 16 17 18 19 20 21 21 20 19 19 20 21 22 24 25 23 21 22 22 22 23 25 27 28 28 29 27 24 22 20 18 18 17 16 15 13 12 11 11 9 9 8 7 6 5 5 5 6 7 7 8 8 9 10 11 12 12 12 12 11 10 10 10 8 7 7 7 7 7 6 6 7
8 7 7 6 6 6 7 8 9 11 12 13 15 16 16 16 16 17 18 18 17 18 21 22 21 20 19 18 20 23 25 26 26 26 27 27 27 27 26 24 21 19 17 16 15 15 14 13 12 11 11 10 9 8 7 6 6 5 5 5 5 5 5 6 6 7 8 9 10 10 11 10 9 9 9 9 8 7 5 5 5 5 4 5 5
4 5 5 6 7 8 9 11 12 13 14 15 16 16 17 18 18 18 19 19 19 20 22 23 21 18 15 15 17 21 24 26 28 28 28 27 26 25 24 22 20 18 17 16 16 15 13 13 12 11 10 10 9 9 8 8 8 7 6 5 4 4 4 5 4 4 5 6 7 8 9 8 8 8 9 9 9 7 6 4 4 4 3 4 5
1 1 3 6 8 9 11 13 15 15 16 17 17 18 19 20 19 19 21 22 21 21 22 23 24 24 23 22 22 23 22 23 25 27 27 26 25 23 22 20 19 18 17 17 16 15 14 13 12 11 10 9 9 8 7 7 7 7 6 6 5 4 3 3 3 3 3 4 5 6 8 9 9 9 9 9 9 8 6 5 4 3 3 3 3
7 6 5 7 10 12 12 14 15 16 17 17 17 18 19 20 21 23 24 24 24 23 24 25 28 30 29 27 27 26 24 22 23 25 25 24 23 22 20 19 18 17 16 15 14 13 13 12 11 10 10 8 7 6 6 5 5 5 4 4 4 3 3 2 2 2 2 3 4 5 6 8 10 10 10 9 9 9 7 6 4 3 3 2 2
13 12 11 10 12 13 15 15 16 16 16 17 17 18 19 20 22 24 25 27 28 28 26 26 27 29 29 27 26 26 25 24 24 24 24 23 23 22 20 19 17 16 16 14 13 12 11 11 10 9 9 8 7 6 5 4 3 3 2 2 2 1 1 1 1 1 1 2 3 5 6 7 8 9 9 9 9 9 9 7 5 4 3 3 3
20 19 19 18 18 17 16 18 20 21 21 20 20 21 21 22 23 24 24 25 27 28 27 25 24 26 28 28 27 27 27 26 26 25 24 23 23 22 20 19 18 17 16 15 13 12 11 10 9 8 8 7 7 6 5 4 2 1 1 1 1 1 1 1 2 2 2 3 4 5 6 6 7 7 8 9 10 10 9 9 8 6 5 3 3
26 26 26 26 26 24 22 20 21 23 24 23 23 23 23 24 26 26 25 24 25 26 27 27 26 27 28 29 28 28 28 28 27 27 25 24 23 22 21 20 19 18 17 16 14 13 12 11 10 9 8 7 7 6 5 4 3 2 2 2 2 2 2 3 4 4 4 4 5 5 6 6 7 7 8 9 9 9 9 9 9 8 8 7 5
31 31 31 31 32 30 27 25 25 24 24 24 24 25 26 28 28 28 27 26 26 26 27 29 29 29 29 30 30 29 29 29 28 28 27 26 25 24 22 21 20 19 18 18 16 15 14 13 12 11 10 9 8 8 7 6 5 5 4 4 4 4 4 4 5 5 6 6 6 6 6 7 7 7 8 8 8 8 7 8 8 8 8 8 8
32 34 35 35 34 33 32 31 31 30 28 26 25 25 28 30 31 31 29 28 27 26 26 28 29 30 30 30 30 29 29 29 28 28 28 28 27 25 24 23 22 22 21 20 19 18 17 16 15 14 13 12 11 10 10 9 8 8 8 7 6 5 4 4 5 6 7 7 7 7 7 8 8 9 9 9 8 8 8 8 8 7 7 7 8
28 29 31 33 34 34 35 35 34 34 33 32 30 29 29 29 30 31 31 30 28 27 27 28 30 31 31 31 31 30 30 29 28 27 27 27 26 25 25 24 24 23 23 22 21 20 19 18 17 16 15 14 13 13 12 12 11 11 10 9 7 6 5 4 4 5 6 6 6 6 7 7 7 8 9 9 10 10 10 9 8 7 7 6 7
Wind_Direction
202 203 205 206 207 208 209 210 211 213 213 215 217 220 223 224 225 227 229 231 233 233 233 235 237 238 237 237 239 240 242 245 247 248 249 250 251 250 251 252 253 256 257 257 257 257 259 261 262 263 263 266 267 266 265 264 261 259 257 259 259 257 253 245 242 265 277 279 281 284 288 290 289 289 288 288 286 283 280 278 276 274 273 272 273
201 202 204 205 207 208 209 210 210 212 213 214 217 220 222 223 224 225 227 230 232 233 234 235 237 238 239 239 240 241 243 245 246 247 247 248 250 250 250 251 252 254 255 257 257 257 258 260 262 263 263 264 266 267 267 266 263 260 258 257 259 258 254 250 247 256 271 276 278 281 285 286 287 287 288 290 290 289 285 282 281 280 279 278 277
200 201 202 204 206 208 208 209 209 210 212 214 217 219 221 222 223 224 227 230 231 233 235 236 236 238 239 240 241 242 244 246 246 246 247 247 248 250 250 250 251 251 252 255 257 257 257 259 260 262 263 263 264 265 266 267 265 263 261 258 259 260 257 254 252 252 264 275 278 279 282 284 285 286 288 288 288 285 282 281 280 279 278 278 276
199 199 201 203 205 207 207 208 209 210 212 214 216 218 220 221 222 224 227 229 231 233 235 236 237 237 238 239 241 242 244 245 246 246 246 247 248 249 250 251 251 252 253 254 255 256 256 257 259 261 260 261 263 264 264 265 265 264 263 261 260 260 259 257 255 255 259 270 276 277 279 282 283 285 285 282 281 279 278 278 277 276 276 276 274
197 198 200 202 203 205 207 208 209 210 212 214 216 218 218 220 221 223 225 227 230 232 233 235 235 236 237 238 240 242 244 245 245 245 246 247 248 250 251 251 252 253 254 255 255 255 256 257 259 259 258 258 261 263 263 263 264 264 264 263 261 261 261 259 258 258 257 262 270 275 278 279 280 282 281 279 279 278 277 276 275 274 275 274 273
196 197 199 200 202 205 206 207 209 211 212 214 216 217 218 219 221 222 224 226 228 230 231 233 234 235 237 239 239 241 243 244 244 245 246 247 249 250 251 251 252 252 254 255 256 256 257 259 260 258 256 256 259 261 262 262 262 262 263 263 263 262 262 261 260 259 258 260 266 272 275 276 277 279 279 278 278 278 278 278 277 275 274 274 274
195 196 198 200 202 204 205 208 209 211 213 214 215 217 218 219 220 222 224 225 227 229 230 232 233 236 238 239 239 240 241 242 244 244 246 247 248 249 250 250 250 251 252 254 255 257 258 259 260 259 257 257 259 260 260 261 261 262 263 263 263 261 261 262 261 259 259 261 265 269 272 274 275 276 278 279 278 276 276 276 277 277 276 275 276
194 196 198 200 202 204 206 208 210 211 213 214 215 216 217 219 220 222 223 224 226 228 229 231 233 235 238 239 239 239 239 241 242 242 244 245 246 247 248 248 248 249 250 252 254 256 258 260 260 260 259 259 260 261 261 261 261 262 264 263 261 259 259 261 261 260 260 261 265 270 273 275 275 276 278 277 273 273 272 270 272 277 279 279 279
194 195 197 200 203 205 207 208 210 211 212 213 214 215 217 218 219 221 222 224 226 228 229 231 233 235 237 238 239 238 238 239 241 241 242 242 243 244 246 247 248 248 249 250 253 255 257 258 259 260 260 261 262 264 264 264 262 262 265 264 260 258 258 259 260 260 260 261 265 270 274 275 274 275 275 272 268 272 274 271 269 274 279 279 280
193 194 197 201 204 205 206 207 209 210 211 213 214 215 217 218 218 220 222 224 226 228 229 231 232 234 237 238 238 237 237 239 241 243 243 242 242 242 244 246 247 248 248 249 252 254 255 257 259 260 260 261 263 265 266 266 264 265 267 266 261 258 257 258 259 259 260 261 263 267 270 271 272 271 271 271 272 273 272 268 267 272 277 278 280
192 195 198 202 203 204 205 206 207 209 211 213 214 216 217 217 218 220 221 223 225 227 229 230 232 234 235 237 237 237 238 240 242 243 244 244 243 242 243 245 246 247 248 249 252 254 255 257 259 259 259 260 262 264 265 266 266 267 269 268 266 262 257 257 259 260 260 260 262 264 264 267 272 271 269 271 273 271 269 268 266 269 270 269 275
192 196 199 201 201 202 204 205 206 208 210 212 214 216 217 217 218 220 221 223 224 225 227 229 231 233 234 236 237 237 239 242 243 243 244 244 243 242 243 244 245 246 248 249 252 254 256 257 259 259 259 260 261 263 264 265 266 267 269 270 269 266 261 259 259 260 261 262 264 264 262 266 271 271 268 269 270 269 269 268 264 262 263 261 262
193 196 198 199 200 201 203 204 206 208 210 212 214 215 216 217 218 219 221 223 224 225 226 228 231 232 233 235 236 237 240 242 243 244 244 244 243 242 242 243 244 246 247 249 251 253 255 256 257 258 259 259 260 261 262 264 266 266 268 269 269 268 265 262 261 262 261 261 262 263 264 265 267 269 270 270 269 268 266 265 263 259 259 259 260
192 195 197 199 200 201 202 203 206 209 211 212 213 214 215 216 218 220 222 223 223 225 227 228 230 231 233 235 237 238 240 242 243 244 244 244 243 242 243 243 244 245 247 249 250 252 253 254 255 257 258 258 258 258 260 262 263 264 265 267 269 269 266 264 265 265 262 259 259 262 265 265 264 269 273 270 265 263 262 263 264 262 261 265 268
191 194 196 198 200 201 202 204 207 209 211 211 212 213 215 217 218 220 221 222 224 225 227 228 229 231 233 234 236 239 241 242 243 244 245 245 244 243 243 243 243 245 247 249 250 251 253 253 254 257 258 258 258 258 259 260 261 260 260 263 268 268 265 266 270 271 268 264 261 263 267 266 266 270 273 270 266 264 265 267 269 269 271 275 278
191 194 195 198 200 201 202 204 207 209 210 211 211 213 215 217 219 219 220 222 224 226 227 228 229 231 232 233 235 239 242 243 243 244 245 244 244 243 243 243 243 244 247 249 250 251 253 253 254 256 257 258 259 259 260 260 259 257 257 260 265 265 263 268 276 279 277 274 270 269 271 271 271 273 274 273 269 266 268 273 274 274 276 278 278
192 194 196 198 201 202 203 205 207 209 209 209 211 214 216 218 219 219 219 221 223 225 227 228 230 231 232 233 234 237 241 242 243 244 244 243 242 242 241 242 242 244 247 250 251 252 253 252 253 255 257 259 261 262 262 260 257 255 255 259 263 263 260 266 279 283 281 278 277 277 278 279 279 279 279 277 275 269 263 267 271 271 269 271 272
193 194 197 201 202 203 204 206 208 208 208 209 212 214 216 218 219 219 218 220 223 225 226 228 230 231 232 233 234 236 240 242 242 243 243 242 240 240 240 240 241 243 247 250 251 252 253 253 253 254 256 259 262 263 263 261 257 255 254 255 260 263 257 255 272 281 280 278 277 277 279 281 282 281 281 281 281 276 263 259 265 265 258 258 263
195 197 200 203 205 205 206 208 209 208 209 211 214 215 217 218 219 219 218 220 223 226 226 227 229 230 232 234 235 237 240 242 243 243 242 241 240 239 238 238 238 241 246 249 251 252 252 253 255 255 256 259 262 263 263 261 257 256 255 253 257 263 256 241 259 273 276 275 275 275 277 280 280 280 281 282 283 281 272 265 265 262 254 255 261
198 201 204 205 206 207 207 208 210 210 211 213 215 217 218 219 219 218 219 221 224 226 226 227 229 231 232 233 235 237 239 240 241 242 242 241 240 238 236 235 236 240 244 247 249 251 252 253 255 257 258 260 262 263 264 262 260 258 255 251 255 262 257 242 254 267 272 273 275 276 276 278 278 277 279 281 282 281 277 273 269 262 255 253 257
202 205 207 207 208 209 209 210 212 213 214 216 217 218 219 219 219 218 219 220 222 224 226 227 229 232 233 233 234 236 238 239 240 241 241 241 240 238 235 235 236 239 242 245 248 249 251 253 256 260 263 264 265 266 266 265 264 261 257 255 258 258 249 245 261 270 273 274 276 278 279 278 278 278 279 280 281 279 276 273 271 266 259 251 251
202 207 209 210 211 210 211 213 214 215 217 217 217 218 220 220 220 219 219 219 221 223 225 226 228 231 234 234 235 237 239 239 239 240 241 241 241 239 238 238 239 239 240 243 246 249 252 256 259 263 265 266 267 269 269 269 268 265 264 264 264 258 243 243 263 271 275 274 274 277 280 280 281 283 283 283 284 284 281 276 273 270 265 258 256
200 205 209 212 215 214 213 214 215 216 218 217 217 219 220 220 220 219 218 218 219 222 224 224 226 230 233 235 236 238 239 239 239 240 241 242 242 242 242 242 243 242 240 243 247 251 255 258 260 264 266 267 268 269 269 270 268 268 270 269 264 258 242 237 260 271 276 277 275 277 282 284 287 290 292 292 293 293 290 285 281 278 274 270 268
196 203 207 211 215 217 217 217 216 217 218 217 217 219 219 219 218 218 218 217 217 220 222 222 222 226 231 234 236 238 238 239 239 239 241 243 244 244 245 245 246 244 244 246 250 253 256 258 261 264 265 266 267 267 267 269 269 272 277 272 266 257 217 204 243 265 268 273 276 278 282 288 293 297 299 299 300 300 298 296 293 289 285 282 279
172 192 202 208 212 214 217 218 219 220 219 217 216 217 218 217 216 216 216 215 215 218 220 219 219 222 226 231 235 237 238 238 238 239 241 243 245 247 248 248 249 248 247 248 249 250 252 255 257 259 261 262 265 267 271 277 279 284 288 282 280 266 191 192 226 249 252 262 273 278 284 292 297 300 302 302 303 305 306 304 303 302 299 295 291
120 143 174 196 206 211 214 216 219 221 222 220 218 218 218 216 215 215 214 213 214 216 218 218 219 220 224 229 233 237 238 238 238 240 240 242 244 246 248 249 250 250 248 246 245 244 247 250 251 253 256 259 264 271 277 284 287 287 289 284 272 237 190 201 224 241 250 263 276 282 289 297 300 301 304 306 307 310 313 313 311 310 309 307 302
102 101 110 142 182 201 211 215 218 220 221 222 221 221 220 217 215 215 213 211 212 214 216 217 217 217 222 227 231 235 237 237 237 238 238 240 242 243 245 245 246 247 247 248 247 244 243 244 246 249 254 260 267 274 277 281 283 281 276 257 220 190 185 203 223 242 258 271 279 284 289 295 298 303 309 312 314 317 319 320 317 314 315 314 307
97 93 88 92 125 180 204 213 216 217 219 220 220 221 220 218 217 216 215 212 211 211 212 215 216 217 219 222 226 230 233 234 236 238 238 240 241 241 241 242 242 244 246 248 249 247 245 246 248 252 257 261 262 264 263 260 253 224 192 176 169 170 181 196 213 231 249 262 272 281 289 296 304 314 320 322 322 324 326 327 323 320 321 319 310
87 86 82 75 79 148 197 209 214 215 215 214 215 217 219 219 219 220 220 218 217 215 215 216 218 220 221 222 223 223 227 235 242 244 244 244 244 243 243 245 244 245 246 247 246 245 245 245 244 242 239 233 226 214 198 178 154 138 134 131 129 139 158 173 190 216 239 258 273 287 300 312 321 327 328 327 327 328 331 332 329 327 327 323 315
76 72 69 65 64 99 186 205 212 212 209 207 206 207 212 217 219 219 220 220 220 221 221 222 224 224 224 225 226 227 233 243 250 250 246 243 243 243 245 247 246 245 245 242 236 230 223 214 205 197 189 182 173 162 153 147 137 125 111 96 86 84 91 98 105 128 248 303 315 321 327 330 330 332 332 331 330 331 334 335 334 332 332 328 321
68 60 52 45 43 67 167 192 201 204 203 202 200 196 194 201 212 215 215 217 218 219 221 223 226 228 228 229 231 233 238 244 248 248 244 240 238 237 237 238 239 238 235 225 208 195 187 174 164 162 163 159 151 145 141 135 126 117 103 90 81 79 80 77 70 64 52 30 10 357 347 340 336 336 337 334 331 332 335 338 339 338 336 332 328
61 53 43 36 31 34 167 186 189 192 193 194 194 191 184 176 178 191 205 211 213 215 217 219 221 224 227 230 232 234 237 239 241 242 238 232 229 227 226 228 227 221 212 198 179 170 166 160 155 154 154 148 140 136 132 124 116 109 103 98 92 84 75 65 57 53 46 35 24 12 1 354 348 345 343 339 337 336 338 341 343 343 341 339 338
54 47 37 34 32 26 4 200 194 192 189 188 189 187 182 176 169 163 170 189 201 207 211 213 215 218 221 224 227 231 234 235 237 236 230 221 216 211 206 202 192 181 177 171 161 156 156 155 151 148 145 140 134 130 124 119 111 104 101 101 95 81 68 58 51 48 43 37 31 25 19 14 6 359 353 349 346 345 347 349 350 350 350 347 344
49 39 26 24 25 20 360 244 219 207 200 196 193 187 185 186 181 170 161 162 173 186 196 201 204 209 213 217 219 222 224 225 225 223 214 201 192 186 177 165 157 157 164 163 156 152 152 149 144 142 139 133 129 125 120 115 110 105 104 100 88 74 63 56 53 51 47 42 37 31 25 20 16 10 4 1 359 358 359 1 1 1 1 358 353
42 28 15 9 7 6 347 271 239 221 211 205 198 192 190 190 187 180 173 169 165 164 167 177 187 194 201 205 208 210 210 205 197 191 186 175 169 167 162 153 148 151 158 159 155 152 150 145 140 138 134 128 124 122 117 111 107 107 107 99 82 68 60 56 56 56 51 42 34 29 26 24 23 21 17 13 11 9 8 9 10 8 7 5 4
38 18 2 354 353 353 334 277 246 227 217 208 201 196 192 189 186 182 178 174 167 158 150 148 156 165 174 180 183 183 182 176 168 165 164 161 160 162 158 150 145 146 148 148 147 145 143 139 136 132 127 124 122 118 114 108 104 108 110 98 74 60 57 59 65 66 55 40 30 27 29 29 27 27 28 28 26 21 17 16 17 19 19 18 18
27 11 351 335 331 332 315 263 235 224 214 204 197 193 188 186 183 178 172 167 160 149 140 137 137 138 140 148 155 157 156 154 151 150 150 150 153 158 157 152 148 144 140 139 139 137 135 133 131 127 122 122 122 117 112 108 108 113 114 96 66 63 71 77 80 74 55 41 37 35 36 37 35 34 36 38 38 36 33 32 31 30 27 27 26
3 356 341 323 310 302 280 235 214 208 203 196 191 187 180 176 174 170 165 160 153 145 140 141 143 140 138 141 146 147 146 144 143 144 146 149 153 155 154 150 146 140 136 134 134 134 131 128 126 122 119 121 121 117 113 112 115 119 115 89 72 84 96 97 92 77 58 50 50 49 47 45 45 44 46 47 47 46 45 45 45 44 38 37 38
335 332 325 308 289 278 261 224 201 195 192 187 183 179 173 167 165 163 158 153 149 147 145 145 144 142 141 142 143 144 143 142 142 143 145 148 150 150 148 144 139 134 131 130 129 129 128 126 123 120 120 121 121 118 117 119 123 122 110 88 88 101 108 107 95 78 67 61 59 58 56 54 54 54 55 55 55 56 56 56 58 58 55 52 54
313 308 304 290 270 258 242 215 199 192 186 181 176 172 170 168 167 163 158 152 149 149 147 143 141 142 143 144 144 145 143 139 138 138 138 138 138 139 139 137 132 127 125 125 126 126 126 124 121 117 116 118 120 120 119 121 123 118 102 90 95 100 102 100 92 82 74 67 63 61 58 55 57 61 61 58 57 61 64 62 60 61 59 52 53
305 289 278 267 253 232 210 194 190 185 179 173 169 168 168 168 166 161 155 151 149 147 142 137 138 143 146 147 150 150 144 136 132 132 133 133 134 135 134 132 128 124 121 121 122 124 125 123 120 115 112 113 117 120 121 122 121 115 104 97 99 99 97 95 92 86 81 75 71 68 61 54 54 56 52 46 41 44 55 58 54 53 54 48 44
301 282 262 243 226 208 190 177 173 169 164 161 161 160 159 157 153 148 143 139 137 133 128 126 131 138 144 149 153 150 142 133 128 125 124 124 125 126 126 125 122 119 117 116 118 121 123 122 119 114 111 109 108 110 113 114 110 106 104 104 106 104 96 91 87 87 86 83 78 71 63 58 55 45 32 24 19 13 19 34 35 33 38 41 43
297 273 241 216 202 193 179 167 159 155 151 150 150 149 146 142 138 133 127 122 120 119 116 115 116 117 117 122 131 131 127 125 122 119 116 116 116 116 117 118 118 117 116 114 113 114 117 118 117 116 115 112 107 105 106 107 106 103 101 102 105 102 90 79 75 76 77 74 66 58 51 45 36 21 9 8 11 9 3 2 5 12 23 30 37
77 163 191 180 169 163 161 158 153 148 145 143 141 140 137 133 128 122 118 115 115 114 111 108 105 101 97 98 102 102 102 106 110 110 111 112 112 112 114 117 118 118 117 114 113 114 117 117 116 116 117 116 114 111 108 108 108 105 103 103 106 108 103 88 75 63 53 48 47 43 34 23 11 2 357 358 2 2 359 351 345 349 5 14 29
87 85 112 140 143 141 142 145 143 138 136 133 129 127 128 126 122 118 115 112 110 108 107 108 110 110 109 109 109 108 107 106 105 105 106 106 107 110 113 115 116 116 113 111 112 115 118 118 117 117 116 114 112 109 105 102 100 96 95 97 97 97 100 91 71 56 41 33 31 26 17 7 360 353 350 351 352 353 353 350 340 330 329 341 18
90 82 78 88 104 114 120 123 120 115 112 112 111 110 112 113 113 113 113 112 112 111 109 109 112 114 114 113 111 112 114 113 108 106 105 105 106 108 110 111 112 111 110 110 113 115 116 116 116 115 112 109 107 107 103 96 87 75 70 71 68 71 72 48 21 13 3 2 2 360 356 352 350 345 342 342 344 346 348 350 349 337 316 305 302
93 84 74 71 73 76 85 98 102 99 95 95 96 97 98 99 100 102 104 106 109 109 107 103 102 105 109 109 107 106 107 106 104 103 103 103 105 106 107 108 108 107 105 105 106 106 108 110 111 112 110 107 105 104 101 97 91 68 35 3 332 321 316 317 313 309 317 325 329 331 333 333 335 336 333 332 333 335 338 343 349 351 348 335 304
93 86 78 75 72 65 62 71 83 88 90 91 90 89 90 91 92 92 92 93 96 99 101 100 98 98 100 102 102 101 101 100 98 97 98 98 100 101 102 103 102 101 100 99 98 96 96 97 98 101 102 99 96 92 86 78 67 49 24 355 338 330 320 313 307 300 302 310 313 314 316 317 317 319 320 320 320 323 328 334 340 346 351 353 348
92 88 83 78 76 72 67 66 68 71 76 82 85 86 87 86 85 84 84 83 84 87 92 95 96 95 95 96 97 97 98 97 96 94 94 93 94 95 96 97 97 96 96 95 93 91 89 87 86 86 84 81 79 76 71 63 55 44 32 20 7 355 342 332 323 312 305 304 303 301 302 305 305 306 308 310 310 311 314 321 329 334 338 342 346
90 90 88 84 81 80 78 75 72 70 68 67 69 74 80 82 83 83 82 80 79 79 82 87 90 91 91 91 92 92 92 93 92 92 92 91 90 90 90 90 90 90 89 88 87 86 85 82 81 81 79 75 73 70 64 58 53 45 36 26 15 3 349 335 327 323 321 318 310 301 297 295 294 296 298 298 299 299 299 302 311 317 320 325 330
87 87 88 89 88 87 85 82 79 76 74 69 64 61 64 70 76 81 82 80 78 77 77 80 84 86 86 87 87 87 88 89 90 90 91 90 89 89 88 86 85 84 83 82 80 79 77 76 74 74 71 68 66 64 60 55 50 44 37 27 17 8 359 346 332 326 324 325 324 321 315 307 302 305 304 299 294 293 293 295 299 302 303 306 311
Height
772 776 780 784 787 790 793 795 798 801 804 806 808 809 812 814 816 819 821 824 826 827 829 830 831 832 834 835 837 838 839 840 842 843 844 844 845 846 848 849 850 850 851 852 853 853 853 853 854 855 857 858 858 859 860 860 860 860 861 861 861 861 862 863 863 858 854 855 856 856 856 857 857 857 857 857 857 858 858 858 858 858 857 857 856
769 773 776 780 783 786 790 792 795 798 801 803 805 807 809 812 814 817 819 821 823 824 826 827 829 830 831 832 834 835 836 838 839 840 841 842 843 844 845 846 847 848 849 850 850 851 851 851 852 853 855 855 856 857 857 858 858 858 858 858 858 859 860 861 861 859 854 852 853 854 854 855 855 855 856 856 856 856 856 856 855 855 854 853 853
764 769 773 776 780 783 787 790 792 795 797 799 801 804 806 809 812 814 816 818 820 821 823 825 826 827 829 830 831 832 834 835 836 838 838 839 840 841 843 844 845 846 846 847 847 848 849 849 849 850 852 853 854 855 855 855 855 855 855 856 856 857 858 859 858 857 854 851 850 852 852 853 853 854 855 855 855 854 853 853 853 852 851 850 849
761 765 769 773 777 780 783 786 789 791 794 796 798 801 803 806 809 811 813 815 816 818 820 822 824 825 826 827 828 829 831 832 833 835 835 837 838 839 840 841 842 843 843 844 845 846 846 846 847 848 850 851 851 852 852 852 852 852 852 853 854 854 855 856 856 855 854 851 848 849 851 851 851 851 852 852 851 851 850 850 849 848 847 846 845
758 762 766 770 774 777 780 783 786 788 790 792 795 798 800 803 805 807 809 811 813 815 817 819 820 821 822 824 825 826 827 829 830 831 833 834 835 836 837 838 839 840 841 841 842 843 843 843 844 845 847 848 848 849 849 849 849 849 849 850 851 852 852 853 853 853 852 850 847 847 849 849 848 848 848 848 848 848 847 846 845 844 843 842 841
755 758 762 766 770 773 776 779 782 784 787 789 792 795 797 800 802 804 806 808 810 812 813 815 817 818 819 820 822 823 824 826 827 828 830 831 832 833 834 835 836 837 838 839 840 840 841 841 841 843 845 845 845 845 846 846 846 846 847 848 849 850 850 850 850 850 850 848 847 846 846 846 846 845 845 846 845 844 843 842 840 840 839 837 836
751 755 758 762 766 769 772 775 777 780 783 786 789 791 794 796 798 800 802 804 806 808 810 811 813 814 815 817 818 820 821 823 824 825 827 828 829 830 830 832 833 834 835 836 837 838 838 838 839 840 841 842 842 842 842 843 843 843 844 845 847 848 848 847 848 848 848 847 846 844 844 844 844 843 843 844 843 842 841 839 836 835 834 833 831
747 751 755 758 761 764 767 771 774 776 779 782 785 787 790 792 794 796 799 800 802 804 806 808 809 811 812 813 815 817 818 820 820 822 823 824 825 826 827 828 830 831 832 833 834 835 835 835 836 836 838 838 838 839 840 840 840 840 841 842 844 844 845 845 845 846 845 845 844 842 841 842 841 841 841 841 840 838 837 836 833 831 830 829 827
743 747 751 754 757 760 764 767 770 774 776 779 781 784 786 788 790 793 795 797 798 800 803 804 806 808 809 810 812 814 815 815 816 817 819 820 821 823 824 825 826 828 829 830 831 831 832 832 832 833 834 835 836 836 836 837 838 837 837 839 840 841 842 843 843 843 843 843 842 841 840 838 838 839 838 837 836 833 833 833 831 827 827 825 822
740 744 747 750 753 757 761 764 767 771 773 775 778 780 782 784 787 789 791 793 795 797 799 801 803 804 805 807 808 810 811 811 811 813 814 816 818 820 821 822 823 825 826 827 828 828 828 829 829 830 831 832 832 833 833 834 834 834 834 835 837 838 840 841 841 841 841 841 840 839 837 834 834 835 833 831 831 830 829 829 827 825 825 822 817
736 740 743 746 750 754 758 761 764 767 769 772 774 776 779 781 783 785 787 789 791 794 796 797 799 800 802 803 804 806 806 806 807 809 811 813 815 817 818 819 820 821 822 823 824 824 825 825 826 827 828 828 828 829 829 830 831 831 831 832 833 835 838 839 839 839 839 838 836 836 834 830 828 829 828 826 826 826 825 825 824 822 822 820 814
732 736 739 743 748 751 755 758 761 763 766 768 770 773 775 778 780 781 783 785 787 789 791 792 794 796 798 799 800 801 801 802 804 805 807 809 811 813 815 816 817 818 819 819 820 820 821 822 822 823 824 824 825 825 825 826 827 828 828 828 829 831 834 836 836 836 836 835 833 831 830 827 823 823 823 823 821 822 821 820 820 818 817 815 810
729 733 736 741 744 747 751 754 757 760 762 764 767 769 772 774 776 778 779 781 783 785 786 788 789 791 793 794 795 796 797 798 799 801 803 805 807 810 811 812 813 814 815 815 816 817 817 818 819 819 819 820 821 822 822 822 823 825 825 825 825 827 830 832 833 833 833 831 828 825 824 823 819 816 817 818 817 818 817 814 813 813 811 808 804
726 730 734 738 741 744 748 750 753 756 758 761 763 765 768 769 771 773 776 778 779 780 782 783 785 787 788 789 791 791 792 793 795 797 798 800 803 806 807 808 809 810 811 811 812 812 813 814 815 814 815 816 817 818 818 819 820 821 822 821 820 822 826 829 830 829 827 825 821 817 816 816 813 809 811 813 813 812 811 808 807 808 806 802 798
723 727 731 734 738 741 744 746 749 752 754 757 759 761 763 765 767 769 771 773 775 776 777 779 780 782 783 785 786 787 787 788 791 792 794 796 800 802 803 804 805 805 806 806 807 808 809 810 810 810 811 812 813 814 815 815 817 818 819 818 816 819 823 825 825 823 819 817 814 811 808 808 807 805 805 807 806 805 806 804 803 805 804 800 798
720 723 727 730 733 736 740 743 745 748 750 753 755 757 759 761 763 765 767 769 770 772 773 775 776 777 779 781 782 781 781 784 786 788 790 793 796 798 799 800 800 801 801 801 803 804 805 806 806 806 807 808 808 810 811 812 814 815 816 815 813 816 821 821 820 817 812 808 807 805 802 801 803 801 800 801 800 802 805 803 800 803 804 800 796
716 720 723 726 729 732 735 738 740 743 746 749 751 753 754 756 758 761 763 765 766 767 769 770 772 773 775 777 777 777 777 779 782 784 786 790 792 793 794 795 795 796 796 797 798 799 800 801 802 803 803 803 804 805 807 808 809 810 812 812 811 814 818 819 818 814 805 800 800 800 798 798 799 797 795 795 795 798 804 801 796 800 803 798 791
713 716 719 722 725 728 731 733 736 739 742 744 746 748 749 751 753 756 758 760 761 762 764 766 768 769 771 771 772 773 773 775 778 780 782 785 788 789 790 790 791 791 791 792 794 795 795 797 798 799 799 799 800 801 802 804 805 806 808 809 808 811 815 818 817 808 797 794 796 797 795 795 794 792 790 791 791 794 797 795 791 794 798 794 787
709 712 715 717 720 723 726 729 732 735 737 739 741 743 745 747 749 752 754 756 757 759 761 763 764 765 766 767 769 770 770 771 774 776 778 781 783 784 786 786 786 787 787 788 789 790 791 793 794 795 795 795 796 797 798 799 800 801 804 806 806 808 811 813 811 801 792 791 793 793 791 791 791 789 788 787 787 788 789 788 786 788 789 787 783
706 709 711 714 717 720 723 726 728 731 733 734 736 738 741 743 746 749 750 752 754 756 757 759 760 761 762 764 765 765 766 768 770 772 774 776 778 780 781 781 782 783 783 784 785 786 788 789 790 790 791 791 792 792 793 795 795 797 801 803 803 804 806 806 802 794 790 791 791 788 788 788 788 787 785 783 782 782 782 782 781 781 781 780 777
704 707 709 712 715 718 721 723 725 727 729 730 733 735 737 740 742 745 746 748 750 752 754 755 756 757 759 760 761 761 762 764 766 768 770 772 773 775 776 776 777 779 780 780 781 782 784 785 786 786 786 787 788 789 790 791 792 794 796 798 799 800 800 801 797 791 788 790 788 785 784 785 784 782 781 779 777 777 777 777 775 774 774 772 770
702 705 707 710 713 715 718 720 722 724 726 728 731 733 734 736 739 741 743 745 747 748 750 752 753 754 755 756 757 757 759 760 762 764 766 767 769 771 771 771 773 775 776 776 777 779 780 781 781 782 783 784 785 786 787 788 789 790 791 793 795 795 796 797 795 789 786 787 786 782 780 780 779 777 776 775 773 773 774 773 771 770 768 766 765
700 703 705 707 710 712 715 717 719 721 723 725 727 728 730 733 735 737 739 741 743 745 746 748 750 751 752 752 753 754 755 757 758 760 761 763 764 766 766 768 770 771 772 773 774 775 776 777 778 780 781 781 782 783 784 784 785 786 787 789 790 790 791 794 792 787 784 784 782 779 777 776 775 773 772 771 770 770 770 769 767 766 765 763 762
698 700 702 704 706 708 711 713 715 716 718 720 723 724 726 729 731 733 735 738 740 741 742 744 746 747 748 748 749 750 751 753 754 756 757 759 760 761 763 764 766 768 768 769 771 772 774 775 776 777 778 779 779 780 781 781 782 783 784 784 785 785 787 789 789 785 783 780 778 776 775 774 773 772 770 769 767 766 766 764 762 761 760 758 757
696 697 699 701 703 705 707 709 710 712 714 716 718 720 722 725 727 729 731 733 735 737 738 740 742 743 744 744 745 746 748 749 751 752 754 755 757 758 759 761 763 764 765 766 768 770 771 773 774 775 776 776 777 778 778 779 779 780 781 781 781 781 783 784 784 782 780 778 776 774 773 772 772 770 768 766 764 762 761 759 756 755 754 752 750
694 696 697 699 700 702 704 705 707 709 711 713 714 716 718 720 722 725 727 729 731 732 734 736 737 739 740 741 742 743 744 746 747 749 750 752 753 755 756 758 759 761 762 764 766 767 769 770 771 773 774 774 775 776 776 776 777 777 778 778 778 778 779 780 780 779 777 776 775 774 772 771 770 768 766 763 760 759 758 756 753 750 748 747 744
693 694 695 697 698 699 701 702 704 705 707 709 711 713 715 717 719 721 722 724 727 728 730 732 734 735 737 738 739 740 741 742 744 745 747 748 750 751 753 754 756 757 759 760 762 764 766 768 769 770 771 772 773 774 774 774 775 775 775 776 776 776 777 777 777 777 776 775 775 773 772 770 768 766 763 761 758 756 756 754 751 747 744 743 739
691 692 693 694 695 696 698 699 700 702 703 705 707 709 711 713 715 716 717 719 722 724 726 728 729 731 733 734 736 737 738 739 740 741 743 744 745 747 749 750 752 754 755 757 759 761 763 765 766 768 769 770 771 771 772 772 773 773 774 774 774 775 775 775 775 775 775 774 773 772 770 769 767 764 762 759 756 754 753 752 749 746 743 740 736
690 691 692 693 693 694 695 696 697 698 700 702 704 706 708 710 711 713 715 717 718 720 722 723 725 727 729 730 732 734 735 735 736 737 739 741 742 744 746 747 749 750 752 754 756 758 760 762 763 765 766 768 769 769 770 770 771 772 772 772 773 773 773 773 773 774 774 773 772 771 770 768 766 764 762 759 755 753 752 750 747 744 741 738 734
691 692 693 693 693 693 693 694 695 696 698 700 702 704 706 708 709 711 713 715 716 718 720 721 723 725 726 728 729 730 731 732 733 735 736 738 740 742 743 744 746 747 749 751 753 755 757 759 760 762 764 765 766 767 768 769 770 771 771 771 771 771 771 772 772 772 772 772 772 771 769 768 766 763 761 759 756 752 750 749 746 743 740 736 733
691 692 692 692 692 692 693 694 694 696 697 698 700 702 705 706 708 709 711 713 714 716 718 719 721 723 724 725 726 727 728 730 731 733 734 736 737 739 740 742 743 745 746 748 749 752 754 756 758 760 762 763 764 765 766 767 768 769 770 770 770 770 770 771 771 771 772 771 771 770 769 767 766 763 761 759 756 753 750 747 744 741 738 735 733
689 690 691 691 691 692 692 693 694 695 696 698 699 701 703 705 707 709 710 711 712 714 715 717 718 720 721 722 724 725 726 728 729 730 732 733 735 736 738 740 741 742 744 745 747 750 752 754 756 758 759 761 762 764 765 766 767 768 769 769 770 769 770 770 770 771 771 770 770 769 768 767 765 763 761 759 757 753 750 747 744 741 738 735 733
688 689 690 690 691 691 692 692 693 694 695 696 698 700 702 703 705 706 708 709 710 711 713 714 716 717 719 720 721 722 724 726 727 729 730 731 733 734 736 738 740 741 743 745 746 749 751 753 754 756 758 759 761 762 764 765 766 767 768 768 769 769 769 770 770 770 770 769 769 768 767 765 764 762 761 759 757 754 751 748 745 742 739 737 734
688 689 690 690 691 691 691 692 692 693 693 694 696 698 699 701 702 704 705 707 708 710 711 712 714 715 716 718 719 720 722 724 726 727 728 730 732 734 736 738 740 742 744 745 746 748 750 752 754 756 758 759 761 762 763 764 765 766 767 767 768 769 769 770 770 770 769 768 768 766 765 764 763 761 760 758 756 754 752 750 747 744 742 740 737
688 689 690 691 691 691 691 691 691 692 692 693 694 696 698 699 701 702 703 705 706 708 709 710 712 713 714 716 717 719 721 722 724 726 727 729 731 733 735 737 740 743 744 746 747 748 750 752 754 756 758 759 760 762 763 764 765 766 766 767 768 769 770 770 769 769 768 767 766 766 765 764 763 761 760 757 756 754 752 751 750 747 745 743 740
687 688 690 690 691 691 691 691 691 691 692 692 694 696 697 699 700 701 702 704 705 706 708 709 710 711 713 714 716 718 720 721 723 725 727 729 730 732 734 737 739 742 744 745 747 749 751 753 754 756 758 759 760 761 762 764 765 766 767 768 769 769 769 769 769 768 768 767 766 765 765 764 762 761 760 758 757 756 754 753 752 750 748 746 743
686 688 689 690 690 690 690 691 691 691 691 692 694 695 697 698 699 700 702 703 704 705 707 708 709 711 713 714 716 718 720 721 723 725 727 729 730 732 734 736 738 741 743 746 748 749 751 753 755 756 758 759 760 761 762 764 765 766 767 768 769 769 769 769 768 768 767 767 766 765 765 764 763 761 760 759 758 757 756 755 754 752 750 748 746
686 687 688 690 690 690 690 690 691 691 692 692 693 695 696 698 699 700 702 703 704 705 706 707 708 709 711 713 716 717 719 721 723 725 727 729 731 732 734 736 738 741 744 746 748 750 751 753 755 756 758 759 760 762 763 764 766 767 768 768 769 769 769 768 768 768 767 767 766 765 765 764 763 762 761 761 760 759 758 757 755 754 752 750 748
685 687 688 689 690 690 690 690 691 691 692 692 693 694 696 697 699 700 702 703 704 705 706 707 708 709 711 713 716 718 719 720 722 724 726 728 730 732 734 737 740 742 745 747 749 750 752 753 755 757 758 760 761 762 763 765 766 767 768 768 768 768 768 768 768 768 767 766 766 765 765 764 764 763 763 762 761 760 759 758 757 756 754 753 750
686 687 688 688 689 690 690 691 691 691 691 692 693 694 695 697 698 699 700 702 704 706 707 707 709 711 713 715 717 719 720 721 722 724 726 728 730 732 734 738 741 744 746 748 749 751 752 754 756 757 759 760 761 763 764 765 766 767 768 768 768 768 768 768 768 767 767 766 766 765 765 765 765 764 764 763 763 762 760 759 758 757 756 755 753
686 687 688 688 689 690 690 691 691 691 692 693 693 694 696 697 698 699 700 702 704 705 707 708 710 713 714 715 717 718 720 722 724 725 726 728 730 732 735 739 742 745 747 749 750 752 753 755 756 758 759 760 762 763 764 766 766 767 768 768 768 768 768 767 767 767 767 766 766 765 765 765 765 765 765 765 764 763 761 760 760 759 757 756 754
687 688 688 689 689 690 691 691 692 692 693 694 694 695 696 698 699 701 702 704 706 708 709 710 713 716 718 719 719 719 720 723 725 726 729 731 733 734 737 741 744 747 749 750 752 753 754 755 757 758 760 761 762 763 764 765 766 767 767 768 768 768 768 767 767 767 767 766 766 765 765 765 766 766 766 765 765 764 762 761 761 760 758 757 755
688 689 689 690 690 690 691 691 692 693 694 695 696 697 698 699 701 703 704 706 710 712 712 714 717 720 723 725 725 725 726 727 727 728 731 734 736 738 740 743 745 748 749 751 752 754 755 756 757 759 760 761 762 763 764 765 765 766 767 767 767 767 767 767 767 767 766 766 765 765 765 765 766 766 766 765 765 764 763 762 761 760 759 757 756
688 690 691 691 691 692 692 693 693 694 695 696 698 699 700 701 703 705 706 708 711 714 716 717 719 722 725 729 731 733 736 736 734 733 734 736 738 740 743 745 746 748 750 751 753 754 755 756 757 759 760 760 761 762 763 764 765 765 765 766 766 766 766 766 766 766 765 765 765 764 764 765 765 765 765 765 765 764 763 763 762 761 759 758 757
689 691 693 693 692 693 694 694 695 695 697 698 699 701 702 703 705 707 709 710 713 716 719 720 720 721 725 729 731 735 739 742 741 739 738 739 740 742 744 746 748 749 750 752 753 755 756 757 758 759 760 761 761 762 763 764 764 764 765 765 765 765 766 766 765 765 765 764 764 764 763 764 764 764 764 764 764 764 763 762 761 760 759 758 757
690 693 695 696 695 695 696 696 697 698 699 700 702 703 705 706 708 709 711 712 714 717 720 723 723 724 726 729 732 735 738 741 741 740 740 741 742 744 746 747 749 750 751 753 754 755 756 757 758 759 760 761 761 762 763 763 763 764 764 764 765 765 765 765 765 764 764 763 763 763 763 763 763 763 763 763 763 763 762 761 760 759 758 757 756
692 695 697 698 699 700 700 700 699 700 702 704 706 707 708 709 711 713 715 716 717 718 721 725 727 727 729 731 734 736 739 740 739 740 741 743 744 745 747 748 749 751 752 753 755 756 757 758 759 760 761 761 761 762 762 762 763 763 764 764 764 764 764 764 764 763 763 762 762 762 762 762 762 762 762 762 762 762 762 761 760 758 757 756 755
694 697 699 700 701 703 705 706 705 705 707 708 710 711 712 712 713 716 719 721 722 723 724 726 729 732 732 734 736 738 740 740 741 742 744 745 746 747 748 749 750 752 753 754 756 757 758 759 760 760 761 761 761 761 762 762 762 763 763 764 764 763 763 763 762 762 762 762 761 761 761 761 761 761 761 761 761 761 760 760 759 758 757 756 755
697 699 701 702 703 706 709 711 712 713 714 715 715 716 716 716 717 720 723 726 727 729 729 729 731 734 736 737 739 741 742 742 743 745 747 748 748 749 750 751 752 753 754 756 757 758 759 760 761 761 761 761 762 762 762 763 763 763 763 763 763 763 762 762 762 761 761 761 760 760 760 760 760 760 760 760 760 759 759 759 758 757 756 755 754
701 702 703 705 707 709 711 713 715 717 719 722 724 723 721 720 721 724 727 731 734 736 736 734 733 736 738 739 741 743 744 745 747 748 749 750 751 752 753 754 755 756 756 758 759 760 760 761 761 762 762 763 763 763 763 763 763 763 763 763 762 762 762 761 761 761 760 760 759 759 759 759 759 759 759 759 758 758 758 757 757 756 755 754 753
705 706 708 709 711 712 712 714 716 718 720 724 728 730 731 730 729 729 731 735 739 741 741 738 736 737 739 741 743 745 747 749 750 751 752 753 754 755 756 757 758 758 759 760 761 762 762 763 763 763 764 764 764 764 764 764 764 764 763 763 762 761 761 760 760 760 759 758 758 758 757 757 757 757 757 757 757 757 757 756 756 755 754 753 753